Rotterdam, Netherlands

9:57 AM CET on November 21, 2017 (GMT +0100)
Rotterdam

Weather History for EHRD - November, 2012

Change the Weather History Date:

Thursday, November 22, 2012

  Actual Average Record
Temperature  
Mean Temperature 48 °F -  
Max Temperature 52 °F 44 °F 57 °F (2003)
Min Temperature 44 °F 35 °F 21 °F (1998)
Degree Days  
Heating Degree Days 17    
Moisture  
Dew Point 43 °F    
Average Humidity 86    
Maximum Humidity 100    
Minimum Humidity 68    
Precipitation  
Precipitation 0.00 in - - ()
Sea Level Pressure  
Sea Level Pressure 30.04 in    
Wind  
Wind Speed 13 mph ()    
Max Wind Speed 18 mph    
Max Gust Speed 28 mph    
Visibility 7.3 miles    
Events      
Averages and records for this station are not official NWS values.
T = Trace of Precipitation, MM = Missing Value Source: Averaged Metar Reports

Daily Weather History Graph

Daily Weather History Graph

Search for Another Location

Airport or City:

Trip Planner

Search our weather history database for the weather conditions in past years. The results will help you decide how hot, cold, wet, or windy it might be!

Date:

Astronomy

Nov. 22, 2012 Rise Set
Actual Time 8:14 AM CET 4:42 PM CET
Civil Twilight 7:35 AM CET 5:20 PM CET
Nautical Twilight 6:53 AM CET 6:02 PM CET
Astronomical Twilight 6:13 AM CET 6:42 PM CET
Moon 1:55 PM CET (11/22) 1:38 AM CET (11/22)
Length of Visible Light 9h 44m
Length of Day
8h 27m
Waxing Gibbous, 69% of the Moon is Illuminated
Nov 22
Waxing Gibbous
Nov 28
Full
Dec 6
Last Quarter
Dec 13
New
Dec 20
First Quarter

Hourly Weather History & Observations

Time (CET) Temp. Windchill Dew Point Humidity Pressure Visibility Wind Dir Wind Speed Gust Speed Precip Events Conditions
12:25 AM 50.0 °F - 44.6 °F 82% 30.01 in 6.2 mi West 17.3 mph - N/A   Overcast
12:55 AM 48.2 °F - 44.6 °F 87% 30.01 in 6.2 mi WSW 13.8 mph - N/A   Mostly Cloudy
1:00 AM 48 °F - 44 °F 81% 30.04 in 14 mi WSW 13.4 mph - -   Partly Cloudy
1:25 AM 48.2 °F - 44.6 °F 87% 30.04 in 6.2 mi WSW 11.5 mph - N/A   Unknown
1:55 AM 46.4 °F 41.5 °F 44.6 °F 93% 30.04 in 6.2 mi SW 10.4 mph - N/A   Unknown
2:25 AM 46.4 °F 41.5 °F 42.8 °F 87% 30.04 in 6.2 mi SW 10.4 mph - N/A   Unknown
2:55 AM 46.4 °F 41.9 °F 44.6 °F 93% 30.06 in 6.2 mi SW 9.2 mph - N/A   Unknown
3:25 AM 44.6 °F 39.7 °F 44.6 °F 100% 30.06 in 6.2 mi South 9.2 mph - N/A   Unknown
3:55 AM 44.6 °F 39.7 °F 42.8 °F 93% 30.06 in 6.2 mi South 9.2 mph - N/A   Mostly Cloudy
4:00 AM 44 °F - 43 °F 95% 30.08 in 12 mi South 11.2 mph - -   Partly Cloudy
4:25 AM 44.6 °F 39.2 °F 42.8 °F 93% 30.06 in 6.2 mi SSW 10.4 mph - N/A   Scattered Clouds
4:55 AM 44.6 °F 38.8 °F 44.6 °F 100% 30.06 in 6.2 mi South 11.5 mph - N/A   Unknown
5:25 AM 44.6 °F 38.8 °F 44.6 °F 100% 30.06 in 6.2 mi SSW 11.5 mph - N/A   Partly Cloudy
5:55 AM 44.6 °F 39.2 °F 44.6 °F 100% 30.06 in 6.2 mi SSW 10.4 mph - N/A   Partly Cloudy
6:25 AM 44.6 °F 38.8 °F 44.6 °F 100% 30.06 in 6.2 mi South 11.5 mph - N/A   Scattered Clouds
6:55 AM 44.6 °F 38.8 °F 44.6 °F 100% 30.09 in 6.2 mi South 11.5 mph - N/A   Scattered Clouds
7:00 AM 44 °F - 44 °F 98% 30.09 in 8 mi South 11.2 mph - -   Partly Cloudy
7:25 AM 44.6 °F 38.8 °F 42.8 °F 93% 30.09 in 6.2 mi South 11.5 mph - N/A   Unknown
7:55 AM 44.6 °F 38.8 °F 42.8 °F 93% 30.09 in 6.2 mi South 11.5 mph - N/A   Scattered Clouds
8:25 AM 44.6 °F 38.8 °F 42.8 °F 93% 30.09 in 6.2 mi South 11.5 mph - N/A   Partly Cloudy
8:55 AM 44.6 °F 38.8 °F 42.8 °F 93% 30.09 in 6.2 mi South 11.5 mph - N/A   Unknown
9:25 AM 46.4 °F 40.4 °F 42.8 °F 87% 30.09 in 6.2 mi South 13.8 mph - N/A   Unknown
9:55 AM 46.4 °F 40.4 °F 42.8 °F 87% 30.09 in 6.2 mi South 13.8 mph - N/A   Unknown
10:00 AM 46 °F - 43 °F 86% 30.11 in 12 mi South 13.4 mph - -  
10:25 AM 46.4 °F 40.4 °F 42.8 °F 87% 30.09 in 6.2 mi South 13.8 mph - N/A   Unknown
10:55 AM 48.2 °F - 42.8 °F 82% 30.09 in 6.2 mi South 13.8 mph - N/A   Unknown
11:25 AM 48.2 °F - 44.6 °F 87% 30.09 in 6.2 mi South 13.8 mph - N/A   Unknown
11:55 AM 48.2 °F - 44.6 °F 87% 30.09 in 6.2 mi South 16.1 mph - N/A   Unknown
12:25 PM 50.0 °F - 44.6 °F 82% 30.06 in 6.2 mi South 15.0 mph - N/A   Unknown
12:55 PM 51.8 °F - 44.6 °F 76% 30.06 in 6.2 mi South 16.1 mph - N/A   Unknown
1:00 PM 51 °F - 44 °F 71% 30.08 in 14 mi South 15.7 mph - -   Partly Cloudy
1:25 PM 51.8 °F - 44.6 °F 76% 30.06 in 6.2 mi South 15.0 mph - N/A   Unknown
1:55 PM 51.8 °F - 44.6 °F 76% 30.06 in 6.2 mi South 16.1 mph - N/A   Unknown
2:25 PM 51.8 °F - 44.6 °F 76% 30.04 in 6.2 mi South 16.1 mph - N/A   Unknown
2:55 PM 51.8 °F - 44.6 °F 76% 30.04 in 6.2 mi South 17.3 mph - N/A   Unknown
3:25 PM 51.8 °F - 44.6 °F 76% 30.04 in 6.2 mi South 16.1 mph - N/A   Unknown
3:55 PM 51.8 °F - 44.6 °F 76% 30.04 in 6.2 mi South 15.0 mph - N/A   Unknown
4:00 PM 51 °F - 44 °F 68% 30.04 in 19 mi South 17.9 mph - -  
4:25 PM 50.0 °F - 42.8 °F 76% 30.04 in 6.2 mi South 16.1 mph - N/A   Unknown
4:55 PM 50.0 °F - 42.8 °F 76% 30.04 in 6.2 mi South 17.3 mph - N/A   Unknown
5:25 PM 48.2 °F - 42.8 °F 82% 30.01 in 6.2 mi South 17.3 mph - N/A   Unknown
5:55 PM 48.2 °F - 42.8 °F 82% 30.01 in 6.2 mi South 17.3 mph - N/A   Unknown
6:25 PM 48.2 °F - 42.8 °F 82% 30.01 in 6.2 mi South 16.1 mph - N/A   Unknown
6:55 PM 48.2 °F - 42.8 °F 82% 30.01 in 6.2 mi South 17.3 mph - N/A   Unknown
7:00 PM 47 °F - 42 °F 76% 30.01 in 19 mi South 15.7 mph - -   Partly Cloudy
7:25 PM 46.4 °F 39.8 °F 42.8 °F 87% 30.01 in 6.2 mi South 16.1 mph 27.6 mph N/A   Unknown
7:55 PM 46.4 °F 39.2 °F 41.0 °F 81% 29.98 in 6.2 mi South 18.4 mph - N/A   Unknown
8:25 PM 46.4 °F 39.2 °F 41.0 °F 81% 29.98 in 6.2 mi South 18.4 mph - N/A   Unknown
8:55 PM 44.6 °F 36.9 °F 41.0 °F 87% 29.98 in 6.2 mi South 18.4 mph - N/A   Unknown
9:25 PM 44.6 °F 36.9 °F 41.0 °F 87% 29.98 in 6.2 mi South 18.4 mph - N/A   Unknown
9:55 PM 44.6 °F 37.2 °F 41.0 °F 87% 29.98 in 6.2 mi South 17.3 mph - N/A   Unknown
10:00 PM 44 °F - 41 °F 84% 29.98 in 14 mi South 17.9 mph - -   Scattered Clouds
10:25 PM 44.6 °F 37.2 °F 41.0 °F 87% 29.98 in 6.2 mi South 17.3 mph - N/A   Unknown
10:55 PM 44.6 °F 36.9 °F 41.0 °F 87% 29.98 in 6.2 mi South 18.4 mph - N/A   Unknown
11:25 PM 44.6 °F 36.9 °F 41.0 °F 87% 29.95 in 6.2 mi South 18.4 mph - N/A   Unknown
11:55 PM 44.6 °F 36.9 °F 41.0 °F 87% 29.95 in 6.2 mi South 18.4 mph - N/A   Unknown